Погода Закаталы

Погода Закаталы : погода сейчас, прогноз погоды и архив. Всё, что Вы хотите узнать о погоде Закаталы!

Поиск расширенной информации на нашем сайте:

Другие новости

Новости СМИ2

Главная страница сайта

Новости сайта

03.07.2017

Напоминаем, что на нашем специализированном сайте Метеоцентр.Азия вы можете получить высокодетализированные автоматические прогнозы погоды по пунктам России, СНГ и мира в авиационном формате (включающие направление и скорость ветра, видимость, явления погоды, количество и форму облачности, нижнюю и верхнюю границу облачности).


Погода Закаталы - сегодня

Время (UTC), дата Ветер
(°,м/с) 
Видим.   Явления Облачность Т
(°С)
Тd
(°С)
f(%) Тe
(°С)
Pmin
(гПа)
dP
(гПа)
Po
(мм)
O2
(г/м3)
Тmin Tmax R s Состояние
почвы
12 23.05.18 160 (Ю) 20000 м    1/0 средняя 
[Ac und]
+29.7 +6.5 23 +30  1019.5  -1.8  724  262           
15 23.05.18 020 (С) 20000 м    4/0 средняя 
[Ac und]
+29.5 +7.1 24 +30  1018.4  -1.1  723  262           
18 23.05.18 050 (СВ) 20000 м    ясно 
+23.2 +6.7 35 +23  1020.8  1.1  724  268    +30.2       
21 23.05.18 050 (СВ) 20000 м    ясно 
+21.7 +3.4 30 +22  1020.6  -0.5  724  270           
00 24.05.18 020 (С) 20000 м    ясно 
+20.9 +2.7 30 +21  1020  -0.8  723  270           
03 24.05.18 070 (В) 20000 м    ясно 
+21.1 -1.9 21 +21  1019  -0.9  722  270           
09 24.05.18 140 (ЮВ) 20000 м    6/0 средняя 
[Ac und]
+27.9 +10.4 34 +30  1017  -0.3  722  262           
12 24.05.18 140 (ЮВ) 20000 м    10/10 1000 м 
[Sc|Ac und]
+29.5 +13.2 37 +36  1014.5  -2.1  720  259           
15 24.05.18 050 (СВ) 20000 м    8/8 1000 м средняя 
[Sc|Ac und]
+25.1 +10.9 41 +28  1014.6  -0.7  720  264           
18 24.05.18 050 (СВ) 4000 м    8/0 средняя 
[Ac und]
+24.2 +4.6 28 +24  1014.9  720  266    +30       
21 24.05.18 050 (СВ) 4000 м    9/9 600 м 
[Sc]
+23.6 +2.5 25 +24  1012.7  -2.1  718  266           
00 25.05.18 050 (СВ) 4000 м    8/8 600 м средняя 
[Sc|Ac und]
+21.1 +2.6 29 +21  1012.4  -0.3  718  268           
03 25.05.18 020 (С) 20000 м    8/8 1000 м средняя 
[Sc|Ac und]
+20.7 +6.2 39 +21  1012.6  -0.3  718  268           
06 25.05.18 070 (В) 20000 м    8/8 1000 м средняя 
[Sc|Ac und]
+24.8 +10.2 40 +27  1012.4  0.6  718  263  +20.2         
09 25.05.18 200 (Ю) 20000 м    8/8 1000 м средняя 
[Sc|Ac und]
+28.7 +5.6 23 +29  1011.2  -0.6  718  261           
12 25.05.18 230 (ЮЗ) 20000 м    6/6 1000 м средняя 
[Sc|Ac und]
+29.1 +7.6 26 +29  1009.8  -1.2  717  260           
15 25.05.18 320 (СЗ) 20000 м    3/0 средняя 
[Ac und]
+28.8 +10 31 +31  1009.8  -0.9  716  259           
21 25.05.18 050 (СВ) 4000 м    10/10 600 м 
[Sc]
+23.4 +9.4 41 +25  1009.9  716  264           
00 26.05.18 050 (СВ) 4000 м    10/10 600 м 
[Sc]
+20.8 +11.4 55 +25  1010.2  -0.1  716  266           
03 26.05.18 050 (СВ) 20000 м    8/8 1000 м средняя 
[Sc|Ac und]
+19.9 +10 53 +23  1010.3  -0.2  716  267           
09 26.05.18 050 (СВ) 20000 м    9/0 средняя 
[Ac und]
+26.4 +14.8 49 +36  1011.2  1.2  718  261           
12 26.05.18 230 (ЮЗ) 20000 м    4/4 1000 м средняя 
[Cu med, cong|Ac und]
+30.2 +10.7 30 +33  1009.6  -0.9  717  258           
15 26.05.18 290 (З) 20000 м    8/8 1000 м средняя 
[Sc|Ac und]
+28.2 +14.7 44 +38  1010.2  0.3  717  259           
21 26.05.18 020 (С) 4000 м  в посл. час дождь  10/10 600 м 
[Sc]
+18 +16.4 90 +31  1018.4  0.3  722  269           
00 27.05.18 050 (СВ) 4000 м  в посл. час дождь  10/10 600 м 
[Sc]
+17.4 +14.8 85 +27  1020.4  1.7  723  271           
Время (UTC), дата Ветер
(°,м/с) 
Видим.   Явления Облачность Т
(°С)
Тd
(°С)
f(%) Тe
(°С)
Pmin
(гПа)
dP
(гПа)
Po
(мм)
O2
(г/м3)
Тmin Tmax R s Состояние
почвы

Для получения пояснительной информации подведите курсор к названию столбца.

ПОГОДА Закаталы - архив

Всё, что Вы хотите узнать о погоде Закаталы - удобно и подробно!

Выберите нужную дату (начиная с 1 января 2015* года) и нажмите кнопку "Найти".
Будут отображены архивные сводки погоды по пункту Закаталы, начиная с указанной даты.


Отображать данные в формате CSV (для использования в таблицах Excel)


Внимание! Наш архив погоды предназначен исключительно для личного некоммерческого использования в познавательных целях. Если Вам необходимы официальные справки о состоянии погоды (для производственных, юридических, коммерческих и т.п. целей), обращайтесь в органы Росгидромета.

*Примечание: данная дата относится к архиву по метеостанциям СССР (Россия, СНГ, Балтия).
Архив по метеостанциям Зарубежной Европы и Азии (кроме Китая) хранится 10 дней, по другим регионам земного шара (Китай, Африка, Америка, Австралия, Океания) - 1 день.

Закаталы - район местоположения метеостанции


Название, широта, долгота, высота метеостанции:
Закаталы 41.6°ш. 46.6°д. 490 м над ур. моря [Азербайджан]

Дополнительная информация

В oтличие oт бoльшинства пoгoдных сайтoв мы публикуем пoдрoбную метеoинфoрмацию в детальнoм прoфессиoнальнoм фoрмате.

Характеристики температуры и влажнoсти вoздуха измеряются на высoте 2 м в тени вдали oт зданий и деревьев.
Скoрoсть ветра измеряется на высoте 10 м (на урoвне рoста челoвека скoрoсть ветра ниже в 1.5-2 раза). Если метеoстанция нахoдится в гoрoде или в лесу, тo скoрoсть ветра занижена на 2-4 м/с пo сравнению с oткрытым местoм. Скoрoсть ветра над акватoриями крупных рек и oзёр, а также на вершинах хoлмoв на 2-5 м/с выше, чем в oбычных услoвиях.
Атмoсфернoе давление в разных тoчках местнoсти мoжет значительнo oтличаться oт давления на метеoстанции, в зависимoсти oт услoвий рельефа (при пoдъёме на 10 м давление пoнижается примернo на 1 мм рт.ст.).